When you browse on this site, cookies collect data to enhance your experience and personalize the content and advertising you see.
Visit our Privacy Policy to learn more. By continuing to use the site, you agree to this use of cookies and data.
  • în România
  • Lista ţărilor
  • Pe 7 zile
  • Temperatura apei
  • Hartă satelitară
  • Meteo pe hartă
  • Widget-uri
  • user-avatar
    Intrare

    Meteo pe oră la Guntur

    Astăzi, 21 Iulie, Duminică

    Timp Temperatura Precipitaţii Vânt Presiune Umiditate
    00:00 +31°C° 0.6 mm 2 m/s 749 mmHg 75%
    01:00 +31°C° 0.6 mm 2 m/s 749 mmHg 76%
    02:00 +31°C° 0.6 mm 3 m/s 748 mmHg 76%
    03:00 +30°C° 0.4 mm 3 m/s 749 mmHg 77%
    04:00 +30°C° 0.4 mm 2 m/s 749 mmHg 77%
    05:00 +30°C° 0 mm 1 m/s 749 mmHg 76%
    06:00 +31°C° 0.1 mm 2 m/s 749 mmHg 70%
    07:00 +32°C° 0.1 mm 2 m/s 750 mmHg 65%
    08:00 +34°C° 0.1 mm 3 m/s 750 mmHg 60%
    09:00 +35°C° 0 mm 3 m/s 750 mmHg 56%
    10:00 +36°C° 0 mm 2 m/s 750 mmHg 51%
    11:00 +37°C° 0 mm 2 m/s 750 mmHg 49%
    12:00 +37°C° 0.1 mm 2 m/s 749 mmHg 49%
    13:00 +37°C° 0.1 mm 2 m/s 749 mmHg 49%
    14:00 +38°C° 0.1 mm 2 m/s 748 mmHg 49%
    15:00 +37°C° 0 mm 2 m/s 748 mmHg 50%
    16:00 +37°C° 0 mm 2 m/s 748 mmHg 50%
    17:00 +37°C° 0 mm 2 m/s 747 mmHg 51%
    18:00 +36°C° 0 mm 3 m/s 748 mmHg 57%
    19:00 +34°C° 0 mm 3 m/s 749 mmHg 63%
    20:00 +33°C° 0 mm 4 m/s 749 mmHg 69%
    21:00 +33°C° 0 mm 3 m/s 749 mmHg 71%
    22:00 +31°C° 0 mm 3 m/s 749 mmHg 73%
    23:00 +31°C° 0 mm 2 m/s 750 mmHg 76%

    Mâine, 22 Iulie, Luni

    Timp Temperatura Precipitaţii Vânt Presiune Umiditate
    00:00 +31°C° 0.7 mm 2 m/s 749 mmHg 76%
    01:00 +31°C° 0.7 mm 2 m/s 749 mmHg 77%
    02:00 +30°C° 0.7 mm 2 m/s 748 mmHg 78%
    03:00 +30°C° 0.4 mm 2 m/s 748 mmHg 78%
    04:00 +30°C° 0.4 mm 1 m/s 748 mmHg 78%
    05:00 +30°C° 0.4 mm 1 m/s 748 mmHg 78%
    06:00 +31°C° 0.1 mm 1 m/s 749 mmHg 73%
    07:00 +32°C° 0.1 mm 1 m/s 749 mmHg 68%
    08:00 +33°C° 0.1 mm 1 m/s 750 mmHg 63%
    09:00 +34°C° 0 mm 1 m/s 749 mmHg 59%
    10:00 +35°C° 0 mm 1 m/s 749 mmHg 55%
    11:00 +36°C° 0 mm 1 m/s 749 mmHg 51%
    12:00 +37°C° 0.1 mm 2 m/s 749 mmHg 51%
    13:00 +37°C° 0.1 mm 2 m/s 748 mmHg 51%
    14:00 +37°C° 0.1 mm 3 m/s 747 mmHg 51%
    15:00 +37°C° 0.4 mm 3 m/s 747 mmHg 53%
    16:00 +36°C° 0.4 mm 3 m/s 747 mmHg 56%
    17:00 +36°C° 0.4 mm 4 m/s 747 mmHg 58%
    18:00 +35°C° 0.3 mm 4 m/s 747 mmHg 62%
    19:00 +34°C° 0.3 mm 3 m/s 748 mmHg 67%
    20:00 +33°C° 0.3 mm 3 m/s 749 mmHg 72%
    21:00 +31°C° 0 mm 3 m/s 749 mmHg 74%
    22:00 +31°C° 0 mm 3 m/s 749 mmHg 76%
    23:00 +30°C° 0 mm 2 m/s 749 mmHg 78%

    Poimâine, 23 Iulie, Marţi

    Timp Temperatura Precipitaţii Vânt Presiune Umiditate
    00:00 +30°C° 0 mm 2 m/s 748 mmHg 79%
    01:00 +30°C° 0 mm 1 m/s 748 mmHg 81%
    02:00 +30°C° 0 mm 1 m/s 747 mmHg 82%
    03:00 +30°C° 0.2 mm 1 m/s 747 mmHg 83%
    04:00 +30°C° 0.2 mm 1 m/s 747 mmHg 84%
    05:00 +29°C° 0.2 mm 1 m/s 747 mmHg 85%
    06:00 +30°C° 0.2 mm 1 m/s 748 mmHg 79%
    07:00 +31°C° 0.2 mm 2 m/s 748 mmHg 73%
    08:00 +32°C° 0.2 mm 2 m/s 749 mmHg 68%
    09:00 +34°C° 0.1 mm 2 m/s 748 mmHg 63%
    10:00 +35°C° 0.1 mm 2 m/s 748 mmHg 58%
    11:00 +36°C° 0.1 mm 2 m/s 748 mmHg 53%
    12:00 +36°C° 0.5 mm 2 m/s 747 mmHg 53%
    13:00 +36°C° 0.5 mm 2 m/s 747 mmHg 52%
    14:00 +37°C° 0.5 mm 2 m/s 746 mmHg 52%
    15:00 +36°C° 0.9 mm 3 m/s 746 mmHg 55%
    16:00 +35°C° 0.9 mm 3 m/s 746 mmHg 58%
    17:00 +35°C° 0.9 mm 4 m/s 746 mmHg 61%
    18:00 +34°C° 0.6 mm 4 m/s 747 mmHg 66%
    19:00 +33°C° 0.6 mm 3 m/s 747 mmHg 71%
    20:00 +31°C° 0.6 mm 3 m/s 748 mmHg 76%
    21:00 +30°C° 0.2 mm 3 m/s 748 mmHg 77%
    22:00 +30°C° 0.2 mm 3 m/s 749 mmHg 78%
    23:00 +30°C° 0.2 mm 3 m/s 749 mmHg 79%

    24 Iulie, Miercuri

    Timp Temperatura Precipitaţii Vânt Presiune Umiditate
    00:00 +30°C° 0 mm 2 m/s 748 mmHg 80%
    01:00 +30°C° 0 mm 2 m/s 748 mmHg 81%
    02:00 +29°C° 0 mm 1 m/s 747 mmHg 81%
    03:00 +29°C° 0 mm 1 m/s 747 mmHg 82%
    04:00 +29°C° 0 mm 2 m/s 747 mmHg 82%
    05:00 +29°C° 0 mm 2 m/s 747 mmHg 83%
    06:00 +30°C° 0 mm 3 m/s 748 mmHg 78%
    07:00 +30°C° 0 mm 3 m/s 748 mmHg 73%
    08:00 +31°C° 0 mm 3 m/s 749 mmHg 68%
    09:00 +33°C° 0 mm 4 m/s 749 mmHg 65%
    10:00 +34°C° 0 mm 4 m/s 749 mmHg 62%
    11:00 +35°C° 0 mm 4 m/s 749 mmHg 59%
    12:00 +35°C° 0.2 mm 4 m/s 748 mmHg 58%
    13:00 +36°C° 0.2 mm 4 m/s 747 mmHg 57%
    14:00 +36°C° 0.2 mm 5 m/s 747 mmHg 57%
    15:00 +36°C° 0.4 mm 5 m/s 746 mmHg 57%
    16:00 +36°C° 0.4 mm 5 m/s 746 mmHg 58%
    17:00 +35°C° 0.4 mm 6 m/s 746 mmHg 58%
    18:00 +35°C° 0.2 mm 5 m/s 747 mmHg 60%
    19:00 +34°C° 0.2 mm 5 m/s 748 mmHg 61%
    20:00 +33°C° 0.2 mm 5 m/s 749 mmHg 63%
    21:00 +33°C° 0 mm 4 m/s 749 mmHg 64%
    22:00 +32°C° 0 mm 4 m/s 750 mmHg 66%
    23:00 +31°C° 0 mm 3 m/s 750 mmHg 67%

    25 Iulie, Joi

    Timp Temperatura Precipitaţii Vânt Presiune Umiditate
    00:00 +30°C° 0 mm 3 m/s 749 mmHg 68%
    01:00 +30°C° 0 mm 3 m/s 749 mmHg 70%
    02:00 +30°C° 0 mm 3 m/s 749 mmHg 71%
    03:00 +29°C° 0 mm 4 m/s 749 mmHg 72%
    04:00 +29°C° 0 mm 4 m/s 749 mmHg 72%
    05:00 +29°C° 0 mm 4 m/s 749 mmHg 73%
    06:00 +30°C° 0 mm 5 m/s 750 mmHg 70%
    07:00 +32°C° 0 mm 5 m/s 750 mmHg 66%
    08:00 +33°C° 0 mm 6 m/s 751 mmHg 63%
    09:00 +34°C° 0 mm 6 m/s 751 mmHg 59%
    10:00 +35°C° 0 mm 6 m/s 750 mmHg 56%
    11:00 +36°C° 0 mm 6 m/s 750 mmHg 52%
    12:00 +36°C° 0.1 mm 6 m/s 750 mmHg 51%
    13:00 +38°C° 0.1 mm 6 m/s 749 mmHg 50%
    14:00 +38°C° 0.1 mm 6 m/s 748 mmHg 49%
    15:00 +37°C° 0 mm 5 m/s 748 mmHg 50%
    16:00 +37°C° 0 mm 4 m/s 748 mmHg 50%
    17:00 +37°C° 0 mm 3 m/s 748 mmHg 51%
    18:00 +36°C° 0.1 mm 3 m/s 749 mmHg 53%
    19:00 +35°C° 0.1 mm 4 m/s 749 mmHg 55%
    20:00 +34°C° 0.1 mm 4 m/s 750 mmHg 57%
    21:00 +34°C° 0 mm 5 m/s 750 mmHg 59%
    22:00 +33°C° 0 mm 5 m/s 750 mmHg 60%
    23:00 +33°C° 0 mm 5 m/s 750 mmHg 61%

    26 Iulie, Vineri

    Timp Temperatura Precipitaţii Vânt Presiune Umiditate
    00:00 +32°C° 0 mm 5 m/s 750 mmHg 63%
    01:00 +32°C° 0 mm 4 m/s 749 mmHg 65%
    02:00 +32°C° 0 mm 4 m/s 749 mmHg 67%
    03:00 +30°C° 0 mm 4 m/s 749 mmHg 68%
    04:00 +30°C° 0 mm 4 m/s 749 mmHg 68%
    05:00 +30°C° 0 mm 4 m/s 750 mmHg 69%
    06:00 +32°C° 0 mm 5 m/s 750 mmHg 66%
    07:00 +32°C° 0 mm 5 m/s 750 mmHg 63%
    08:00 +33°C° 0 mm 6 m/s 751 mmHg 60%
    09:00 +34°C° 0 mm 6 m/s 751 mmHg 56%
    10:00 +35°C° 0 mm 6 m/s 751 mmHg 53%
    11:00 +36°C° 0 mm 6 m/s 750 mmHg 50%
    12:00 +38°C° 0.1 mm 7 m/s 750 mmHg 49%
    13:00 +38°C° 0.1 mm 7 m/s 749 mmHg 48%
    14:00 +38°C° 0.1 mm 7 m/s 748 mmHg 47%
    15:00 +38°C° 0 mm 6 m/s 748 mmHg 47%
    16:00 +38°C° 0 mm 6 m/s 748 mmHg 48%
    17:00 +36°C° 0 mm 6 m/s 748 mmHg 49%
    18:00 +35°C° 0.4 mm 5 m/s 749 mmHg 52%
    19:00 +34°C° 0.4 mm 5 m/s 750 mmHg 56%
    20:00 +33°C° 0.4 mm 4 m/s 750 mmHg 60%
    21:00 +33°C° 0 mm 4 m/s 751 mmHg 60%
    22:00 +33°C° 0 mm 4 m/s 751 mmHg 60%
    23:00 +33°C° 0 mm 4 m/s 751 mmHg 61%
    Arată mai mult